This is the latest recevied weather packets stored in our database for station/object N6GPM. If no packets are shown the sender has not sent any weather packets the latest 10 day(s).
| Time | Temp. | Humidity | Pressure | Rain* | Wind** | Luminosity | Snow |
|---|---|---|---|---|---|---|---|
| 1787624938 | 32.22° C | 26% | 1018.2 hPa | 0 mm | - | 3 W/m² | - |
| 1787624637 | 32.22° C | 26% | 1018.2 hPa | 0 mm | - | 6 W/m² | - |
| 1787624332 | 32.78° C | 25% | 1018 hPa | 0 mm | - | 10 W/m² | - |
| 1787624029 | 32.78° C | 25% | 1017.8 hPa | 0 mm | - | 15 W/m² | - |
| 1787623728 | 32.78° C | 25% | 1017.9 hPa | 0 mm | - | 22 W/m² | - |
| 1787623427 | 33.33° C | 26% | 1017.9 hPa | 0 mm | - | 30 W/m² | - |
| 1787623125 | 33.33° C | 24% | 1017.8 hPa | 0 mm | - | 40 W/m² | - |
| 1787622822 | 33.89° C | 24% | 1017.7 hPa | 0 mm | - | 49 W/m² | - |
| 1787622519 | 33.89° C | 24% | 1017.5 hPa | 0 mm | - | 63 W/m² | - |
| 1787622214 | 33.89° C | 24% | 1017.7 hPa | 0 mm | - | 75 W/m² | - |
| 1787621914 | 33.89° C | 23% | 1017.4 hPa | 0 mm | - | 82 W/m² | - |
| 1787621609 | 33.89° C | 25% | 1017.6 hPa | 0 mm | - | 89 W/m² | - |
| 1787621304 | 33.89° C | 24% | 1017.5 hPa | 0 mm | - | 98 W/m² | - |
| 1787621000 | 34.44° C | 25% | 1017.6 hPa | 0 mm | - | 106 W/m² | - |
| 1787620695 | 34.44° C | 24% | 1017.6 hPa | 0 mm | - | 116 W/m² | - |
| 1787620391 | 35° C | 24% | 1017.7 hPa | 0 mm | - | 128 W/m² | - |
| 1787620086 | 35° C | 24% | 1017.3 hPa | 0 mm | - | 144 W/m² | - |
| 1787619781 | 35° C | 24% | 1017.5 hPa | 0 mm | - | 159 W/m² | - |
| 1787619476 | 35° C | 24% | 1017.2 hPa | 0 mm | - | 172 W/m² | - |
| 1787619170 | 35.56° C | 22% | 1017.2 hPa | 0 mm | - | 189 W/m² | - |
| 1787618864 | 35.56° C | 23% | 1017.4 hPa | 0 mm | - | 204 W/m² | - |
| 1787618561 | 35.56° C | 20% | 1017.2 hPa | 0 mm | - | 226 W/m² | - |
| 1787618252 | 35.56° C | 20% | 1017.3 hPa | 0 mm | - | 246 W/m² | - |
| 1787617948 | 36.11° C | 19% | 1017 hPa | 0 mm | - | 264 W/m² | - |
| 1787617647 | 36.11° C | 18% | 1017.4 hPa | 0 mm | - | 286 W/m² | - |
* Rain latest hour (hover to see other rain measurements)
** Current wind speed in m/s (hover to see current wind gust speed)